Weather History for Litchfield, MN

Change the Weather History Date:

Wednesday, September 7, 2011

  Actual Average Record
Temperature  
Mean Temperature 64 °F -  
Max Temperature 75 °F 77 °F 98 °F (1978)
Min Temperature 53 °F 53 °F 36 °F (1956)
Degree Days  
Heating Degree Days 1    
Growing Degree Days 14 (Base 50)    
Moisture  
Dew Point 53 °F    
Average Humidity 73    
Maximum Humidity 94    
Minimum Humidity 44    
Precipitation  
Precipitation 0.00 in - - ()
Sea Level Pressure  
Sea Level Pressure 30.27 in    
Wind  
Wind Speed 1 mph (SSE)    
Max Wind Speed 6 mph    
Max Gust Speed -    
Visibility 10 miles    
Events      
Averages and records for this station are not official NWS values.
T = Trace of Precipitation, MM = Missing Value Source: NWS Daily Summary

Daily Weather History Graph

Daily Weather History Graph

Search for Another Location

Airport:

Trip Planner

Search our weather history database for the weather conditions in past years. The results will help you decide how hot, cold, wet, or windy it might be!

Date:

Astronomy

Sep. 07, 2011 Rise Set
Actual Time 6:46 AM CDT 7:44 PM CDT
Civil Twilight 6:16 AM CDT 8:14 PM CDT
Nautical Twilight 5:40 AM CDT 8:50 PM CDT
Astronomical Twilight 5:03 AM CDT 9:27 PM CDT
Moon 5:12 PM CDT (9/7) 1:52 AM CDT (9/7)
Length of Visible Light 13h 57m
Length of Day
12h 57m
Waxing Gibbous, 80% of the Moon is Illuminated
Sep 7
Waxing Gibbous
Sep 12
Full
Sep 20
Last Quarter
Sep 27
New
Oct 3
First Quarter

Hourly Weather History & Observations

Time (CDT) Temp. Dew Point Humidity Pressure Visibility Wind Dir Wind Speed Gust Speed Precip Events Conditions
12:14 AM 57.2 °F 51.8 °F 82% 30.22 in 10.0 mi Calm Calm - N/A   Scattered Clouds
12:33 AM 55.4 °F 51.8 °F 88% 30.22 in 10.0 mi SSE 3.5 mph - N/A   Clear
12:53 AM 53.6 °F 51.8 °F 94% 30.22 in 10.0 mi Calm Calm - N/A   Clear
1:13 AM 53.6 °F 51.8 °F 94% 30.22 in 10.0 mi Calm Calm - N/A   Scattered Clouds
1:33 AM 55.4 °F 51.8 °F 88% 30.22 in 10.0 mi Calm Calm - N/A   Scattered Clouds
1:53 AM 53.6 °F 51.8 °F 94% 30.22 in 10.0 mi Calm Calm - N/A   Scattered Clouds
2:14 AM 55.4 °F 51.8 °F 88% 30.23 in 10.0 mi SSE 3.5 mph - N/A   Scattered Clouds
2:33 AM 55.4 °F 51.8 °F 88% 30.23 in 10.0 mi SSE 3.5 mph - N/A   Scattered Clouds
2:53 AM 53.6 °F 51.8 °F 94% 30.23 in 10.0 mi Calm Calm - N/A   Scattered Clouds
3:14 AM 55.4 °F 51.8 °F 88% 30.23 in 10.0 mi SSE 3.5 mph - N/A   Scattered Clouds
3:33 AM 55.4 °F 51.8 °F 88% 30.23 in 10.0 mi Calm Calm - N/A   Scattered Clouds
3:53 AM 55.4 °F 51.8 °F 88% 30.23 in 10.0 mi Calm Calm - N/A   Clear
4:13 AM 55.4 °F 51.8 °F 88% 30.23 in 10.0 mi Calm Calm - N/A   Clear
4:34 AM 55.4 °F 51.8 °F 88% 30.23 in 10.0 mi Calm Calm - N/A   Scattered Clouds
4:53 AM 55.4 °F 51.8 °F 88% 30.24 in 10.0 mi Calm Calm - N/A   Scattered Clouds
5:14 AM 55.4 °F 51.8 °F 88% 30.24 in 10.0 mi Calm Calm - N/A   Scattered Clouds
5:33 AM 53.6 °F 50.0 °F 88% 30.25 in 10.0 mi Calm Calm - N/A   Scattered Clouds
5:53 AM 53.6 °F 51.8 °F 94% 30.25 in 10.0 mi Calm Calm - N/A   Clear
6:13 AM 53.6 °F 51.8 °F 94% 30.26 in 10.0 mi Calm Calm - N/A   Scattered Clouds
6:33 AM 53.6 °F 51.8 °F 94% 30.26 in 10.0 mi SSE 3.5 mph - N/A   Clear
6:53 AM 53.6 °F 51.8 °F 94% 30.27 in 10.0 mi Calm Calm - N/A   Clear
7:33 AM 53.6 °F 51.8 °F 94% 30.28 in 10.0 mi Calm Calm - N/A   Clear
7:53 AM 55.4 °F 51.8 °F 88% 30.28 in 10.0 mi Calm Calm - N/A   Clear
8:14 AM 55.4 °F 53.6 °F 94% 30.29 in 10.0 mi Calm Calm - N/A   Clear
8:33 AM 57.2 °F 53.6 °F 88% 30.29 in 10.0 mi Calm Calm - N/A   Clear
8:53 AM 60.8 °F 53.6 °F 77% 30.30 in 10.0 mi Calm Calm - N/A   Clear
9:13 AM 60.8 °F 53.6 °F 77% 30.30 in 10.0 mi Calm Calm - N/A   Clear
9:33 AM 62.6 °F 55.4 °F 77% 30.30 in 10.0 mi Calm Calm - N/A   Clear
10:14 AM 66.2 °F 55.4 °F 68% 30.31 in 10.0 mi Calm Calm - N/A   Clear
10:33 AM 66.2 °F 53.6 °F 64% 30.31 in 10.0 mi West 3.5 mph - N/A   Clear
10:53 AM 66.2 °F 53.6 °F 64% 30.31 in 10.0 mi Calm Calm - N/A   Clear
11:13 AM 69.8 °F 55.4 °F 60% 30.31 in 10.0 mi SSE 3.5 mph - N/A   Clear
11:33 AM 69.8 °F 55.4 °F 60% 30.31 in 10.0 mi ESE 5.8 mph - N/A   Clear
11:53 AM 69.8 °F 51.8 °F 53% 30.31 in 10.0 mi Calm Calm - N/A   Clear
12:13 PM 69.8 °F 51.8 °F 53% 30.31 in 10.0 mi Calm Calm - N/A   Clear
12:33 PM 71.6 °F 53.6 °F 53% 30.31 in 10.0 mi SE 3.5 mph - N/A   Clear
12:53 PM 71.6 °F 53.6 °F 53% 30.30 in 10.0 mi Calm Calm - N/A   Clear
1:13 PM 71.6 °F 53.6 °F 53% 30.30 in 10.0 mi Calm Calm - N/A   Clear
1:33 PM 73.4 °F 53.6 °F 50% 30.30 in 10.0 mi South 3.5 mph - N/A   Clear
1:53 PM 73.4 °F 53.6 °F 50% 30.29 in 10.0 mi ESE 4.6 mph - N/A   Clear
2:13 PM 73.4 °F 51.8 °F 47% 30.29 in 10.0 mi NE 3.5 mph - N/A   Clear
2:33 PM 73.4 °F 51.8 °F 47% 30.29 in 10.0 mi Calm Calm - N/A   Clear
2:53 PM 73.4 °F 51.8 °F 47% 30.29 in 10.0 mi Calm Calm - N/A   Clear
3:13 PM 73.4 °F 53.6 °F 50% 30.28 in 10.0 mi Calm Calm - N/A   Clear
3:33 PM 73.4 °F 51.8 °F 47% 30.28 in 10.0 mi Calm Calm - N/A   Clear
3:53 PM 75.2 °F 51.8 °F 44% 30.28 in 10.0 mi Calm Calm - N/A   Clear
4:13 PM 73.4 °F 51.8 °F 47% 30.28 in 10.0 mi Calm Calm - N/A   Clear
4:34 PM 75.2 °F 53.6 °F 47% 30.28 in 10.0 mi Calm Calm - N/A   Clear
5:13 PM 75.2 °F 53.6 °F 47% 30.28 in 10.0 mi Calm Calm - N/A   Clear
5:34 PM 75.2 °F 51.8 °F 44% 30.28 in 10.0 mi Calm Calm - N/A   Clear
5:53 PM 75.2 °F 51.8 °F 44% 30.28 in 10.0 mi Calm Calm - N/A   Clear
6:13 PM 73.4 °F 53.6 °F 50% 30.28 in 10.0 mi Calm Calm - N/A   Clear
6:34 PM 73.4 °F 53.6 °F 50% 30.28 in 10.0 mi Calm Calm - N/A   Clear
6:53 PM 71.6 °F 55.4 °F 57% 30.28 in 10.0 mi Calm Calm - N/A   Clear
7:13 PM 69.8 °F 57.2 °F 64% 30.28 in 10.0 mi Calm Calm - N/A   Clear
7:34 PM 66.2 °F 59.0 °F 78% 30.29 in 10.0 mi Calm Calm - N/A   Clear
7:53 PM 64.4 °F 59.0 °F 83% 30.29 in 10.0 mi Calm Calm - N/A   Clear
8:13 PM 64.4 °F 60.8 °F 88% 30.29 in 10.0 mi Calm Calm - N/A   Scattered Clouds
8:33 PM 62.6 °F 60.8 °F 94% 30.30 in 10.0 mi Calm Calm - N/A   Clear
8:53 PM 62.6 °F 57.2 °F 82% 30.30 in 10.0 mi Calm Calm - N/A   Clear
9:33 PM 60.8 °F 57.2 °F 88% 30.31 in 10.0 mi Calm Calm - N/A   Clear
9:54 PM 60.8 °F 57.2 °F 88% 30.31 in 10.0 mi Calm Calm - N/A   Scattered Clouds
10:13 PM 60.8 °F 57.2 °F 88% 30.31 in 10.0 mi Calm Calm - N/A   Scattered Clouds
10:33 PM 60.8 °F 57.2 °F 88% 30.31 in 10.0 mi Calm Calm - N/A   Clear
10:54 PM 57.2 °F 57.2 °F 100% 30.31 in 10.0 mi Calm Calm - N/A   Clear
11:13 PM 59.0 °F 59.0 °F 100% 30.31 in 10.0 mi Calm Calm - N/A   Clear
11:33 PM 57.2 °F 57.2 °F 100% 30.31 in 10.0 mi Calm Calm - N/A   Clear